{"data":{"norad_id":54141,"epoch":"2026-09-19T17:24:26.507520Z","epoch_age_seconds":88956,"freshness":"FRESH","line1":"1 54141U 22138AE  26262.72530680  .00000140  00000+0  31345-3 0  9993","line2":"2 54141  87.9143 255.5819 0001908 111.6565 248.4772 13.20772944191786","mean_motion":13.20772944,"eccentricity":0.0001908,"inclination_deg":87.9143,"raan_deg":255.5819,"arg_perigee_deg":111.6565,"mean_anomaly_deg":248.4772,"bstar":0.00031345,"rev_number":19178,"period_min":109.02706680521,"perigee_km":1180.3266266167,"apogee_km":1183.2114867679,"semimajor_km":7559.9060566923,"source":"CELESTRAK","updated_at":"2026-09-20T09:00:44.721037Z"}}